| time (UTC) | temp F | wind direction | speed MPH | gust MPH | rain 1hr in | rain 24hr in | rain mn in | humidity % | barometer mb |
| 20260504050444 | 55 | 30 | 0.0 | 0.0 | 0.00 | 0.00 | 0.00 | 62 | 1008.6 |
| 20260504045943 | 56 | 30 | 0.0 | 1.0 | 0.00 | 0.00 | 0.00 | 64 | 1008.5 |
| 20260504045443 | 56 | 30 | 0.0 | 1.0 | 0.00 | 0.00 | 0.00 | 64 | 1008.6 |
| 20260504044943 | 56 | 30 | 0.0 | 1.0 | 0.00 | 0.00 | 0.00 | 65 | 1008.5 |
| 20260504044439 | 57 | 30 | 0.0 | 0.0 | 0.00 | 0.00 | 0.00 | 65 | 1008.5 |
| 20260504043939 | 58 | 30 | 0.0 | 0.0 | 0.00 | 0.00 | 0.00 | 58 | 1008.5 |
| 20260504043444 | 58 | 30 | 0.0 | 0.0 | 0.00 | 0.00 | 0.00 | 55 | 1008.4 |
| 20260504042941 | 59 | 30 | 0.0 | 0.0 | 0.00 | 0.00 | 0.00 | 54 | 1008.4 |
| 20260504042442 | 59 | 30 | 0.0 | 1.0 | 0.00 | 0.00 | 0.00 | 53 | 1008.4 |
| 20260504041942 | 60 | 30 | 0.0 | 1.0 | 0.00 | 0.00 | 0.00 | 52 | 1008.4 |
| 20260504041440 | 60 | 30 | 0.0 | 1.0 | 0.00 | 0.00 | 0.00 | 56 | 1008.4 |
| 20260504040939 | 61 | 30 | 0.0 | 1.0 | 0.00 | 0.00 | 0.00 | 55 | 1008.4 |
| 20260504040439 | 61 | 30 | 0.0 | 1.0 | 0.00 | 0.00 | 0.00 | 55 | 1008.5 |
| 20260504035438 | 62 | 30 | 0.0 | 2.0 | 0.00 | 0.00 | 0.00 | 49 | 1008.5 |
| 20260504034940 | 62 | 30 | 0.0 | 2.0 | 0.00 | 0.00 | 0.00 | 49 | 1008.4 |
| 20260504034439 | 62 | 302 | 0.0 | 2.0 | 0.00 | 0.00 | 0.00 | 48 | 1008.4 |
| 20260504033941 | 62 | 233 | 0.0 | 2.0 | 0.00 | 0.00 | 0.00 | 48 | 1008.3 |
| 20260504033440 | 62 | 227 | 0.0 | 1.0 | 0.00 | 0.00 | 0.00 | 51 | 1008.3 |
| 20260504032434 | 62 | 217 | 0.0 | 1.0 | 0.00 | 0.00 | 0.00 | 52 | 1008.3 |
| 20260504031934 | 62 | 217 | 0.0 | 1.0 | 0.00 | 0.00 | 0.00 | 52 | 1008.2 |
| 20260504030934 | 62 | 217 | 0.0 | 1.0 | 0.00 | 0.00 | 0.00 | 53 | 1008.1 |
| 20260504030434 | 63 | 205 | 0.0 | 1.0 | 0.00 | 0.00 | 0.00 | 52 | 1008.2 |
| 20260504025434 | 64 | 206 | 0.0 | 1.0 | 0.00 | 0.00 | 0.00 | 49 | 1008.2 |
| 20260504024935 | 65 | 200 | 0.0 | 0.0 | 0.00 | 0.00 | 0.00 | 50 | 1008.1 |
| 20260504024430 | 65 | 200 | 0.0 | 0.0 | 0.00 | 0.00 | 0.00 | 50 | 1008.2 |
| 20260504023929 | 66 | 198 | 0.0 | 0.0 | 0.00 | 0.00 | 0.00 | 48 | 1008.1 |
| 20260504023429 | 66 | 196 | 0.0 | 0.0 | 0.00 | 0.00 | 0.00 | 47 | 1008.1 |
| 20260504022930 | 67 | 196 | 0.0 | 0.0 | 0.00 | 0.00 | 0.00 | 45 | 1008.2 |
| 20260504022430 | 67 | 196 | 0.0 | 0.0 | 0.00 | 0.00 | 0.00 | 45 | 1008.2 |
| 20260504021929 | 67 | 200 | 0.0 | 0.0 | 0.00 | 0.00 | 0.00 | 44 | 1008.2 |
| 20260504021430 | 68 | 200 | 0.0 | 0.0 | 0.00 | 0.00 | 0.00 | 44 | 1008.1 |
| 20260504020930 | 69 | 200 | 0.0 | 0.0 | 0.00 | 0.00 | 0.00 | 44 | 1008.2 |
| 20260504020429 | 69 | 200 | 0.0 | 0.0 | 0.00 | 0.00 | 0.00 | 43 | 1008.2 |
| 20260504015932 | 70 | 200 | 0.0 | 0.0 | 0.00 | 0.00 | 0.00 | 43 | 1008.2 |
| 20260504015429 | 71 | 200 | 0.0 | 1.0 | 0.00 | 0.00 | 0.00 | 42 | 1008.2 |
| 20260504013929 | 75 | 207 | 0.0 | 2.0 | 0.00 | 0.00 | 0.00 | 37 | 1008.3 |
| 20260504012930 | 76 | 220 | 0.0 | 2.0 | 0.00 | 0.00 | 0.00 | 36 | 1008.2 |
| 20260504011930 | 75 | 211 | 0.0 | 1.0 | 0.00 | 0.00 | 0.00 | 36 | 1008.3 |
| 20260504011428 | 75 | 80 | 0.0 | 2.0 | 0.00 | 0.00 | 0.00 | 37 | 1008.3 |
| 20260504010925 | 75 | 152 | 1.0 | 2.0 | 0.00 | 0.00 | 0.00 | 35 | 1008.3 |
| 20260504010418 | 75 | 196 | 0.0 | 2.0 | 0.00 | 0.00 | 0.00 | 36 | 1008.2 |
| 20260504005911 | 76 | 246 | 0.0 | 1.0 | 0.00 | 0.00 | 0.00 | 36 | 1008.4 |
| 20260504005409 | 76 | 244 | 0.0 | 1.0 | 0.00 | 0.00 | 0.00 | 35 | 1008.4 |
| 20260504004910 | 76 | 264 | 1.0 | 3.0 | 0.00 | 0.00 | 0.00 | 34 | 1008.4 |
| 20260504004410 | 76 | 242 | 0.0 | 3.0 | 0.00 | 0.00 | 0.00 | 34 | 1008.5 |
| 20260504003911 | 76 | 34 | 0.0 | 2.0 | 0.00 | 0.00 | 0.00 | 34 | 1008.5 |
| 20260504003407 | 75 | 203 | 1.0 | 2.0 | 0.00 | 0.00 | 0.00 | 35 | 1008.6 |
| 20260504002905 | 74 | 236 | 0.0 | 3.0 | 0.00 | 0.00 | 0.00 | 35 | 1008.5 |
| 20260504002401 | 74 | 257 | 0.0 | 3.0 | 0.00 | 0.00 | 0.00 | 36 | 1008.6 |
| 20260504001902 | 75 | 229 | 0.0 | 1.0 | 0.00 | 0.00 | 0.00 | 33 | 1008.6 |
| 20260504001401 | 76 | 247 | 1.0 | 2.0 | 0.00 | 0.00 | 0.00 | 36 | 1008.7 |
| 20260504000902 | 77 | 222 | 1.0 | 2.0 | 0.00 | 0.00 | 0.00 | 33 | 1008.7 |
| 20260504000401 | 78 | 219 | 1.0 | 2.0 | 0.00 | 0.00 | 0.00 | 31 | 1008.6 |
| 20260503235902 | 79 | 238 | 1.0 | 4.0 | 0.00 | 0.00 | 0.00 | 32 | 1008.7 |
| 20260503235401 | 79 | 229 | 1.0 | 4.0 | 0.00 | 0.00 | 0.00 | 31 | 1008.6 |
| 20260503234901 | 79 | 210 | 1.0 | 3.0 | 0.00 | 0.00 | 0.00 | 29 | 1008.9 |
| 20260503234405 | 79 | 23 | 0.0 | 3.0 | 0.00 | 0.00 | 0.00 | 29 | 1009.0 |
| 20260503233405 | 78 | 139 | 1.0 | 2.0 | 0.00 | 0.00 | 0.00 | 31 | 1008.9 |
| 20260503232904 | 77 | 16 | 1.0 | 4.0 | 0.00 | 0.00 | 0.00 | 31 | 1009.1 |
| 20260503232401 | 78 | 113 | 1.0 | 4.0 | 0.00 | 0.00 | 0.00 | 32 | 1009.0 |
| 20260503231901 | 77 | 57 | 1.0 | 3.0 | 0.00 | 0.00 | 0.00 | 32 | 1009.2 |
| 20260503231401 | 77 | 130 | 1.0 | 4.0 | 0.00 | 0.00 | 0.00 | 34 | 1009.1 |
| 20260503230901 | 76 | 46 | 1.0 | 4.0 | 0.00 | 0.00 | 0.00 | 31 | 1009.2 |
| 20260503225901 | 76 | 225 | 1.0 | 5.0 | 0.00 | 0.00 | 0.00 | 36 | 1009.3 |
| 20260503225401 | 76 | 97 | 1.0 | 5.0 | 0.00 | 0.00 | 0.00 | 33 | 1009.5 |
| 20260503224902 | 76 | 210 | 1.0 | 4.0 | 0.00 | 0.00 | 0.00 | 32 | 1009.5 |
| 20260503223901 | 75 | 209 | 1.0 | 6.0 | 0.00 | 0.00 | 0.00 | 34 | 1009.5 |
| 20260503223401 | 75 | 109 | 2.0 | 3.0 | 0.00 | 0.00 | 0.00 | 35 | 1009.7 |
| 20260503222400 | 73 | 60 | 2.0 | 4.0 | 0.00 | 0.00 | 0.00 | 36 | 1010.1 |
| 20260503221901 | 73 | 63 | 2.0 | 4.0 | 0.00 | 0.00 | 0.00 | 34 | 1010.2 |
| 20260503221356 | 74 | 57 | 1.0 | 4.0 | 0.00 | 0.00 | 0.00 | 33 | 1010.2 |
| 20260503220849 | 75 | 301 | 1.0 | 3.0 | 0.00 | 0.00 | 0.00 | 32 | 1010.3 |
| 20260503220343 | 75 | 58 | 1.0 | 3.0 | 0.00 | 0.00 | 0.00 | 34 | 1010.3 |
| 20260503215837 | 74 | 63 | 2.0 | 4.0 | 0.00 | 0.00 | 0.00 | 35 | 1010.5 |
| 20260503215334 | 74 | 54 | 2.0 | 5.0 | 0.00 | 0.00 | 0.00 | 35 | 1010.6 |
| 20260503214334 | 74 | 252 | 1.0 | 6.0 | 0.00 | 0.00 | 0.00 | 34 | 1010.8 |
| 20260503213833 | 75 | 41 | 1.0 | 4.0 | 0.00 | 0.00 | 0.00 | 36 | 1010.8 |
| 20260503212832 | 73 | 54 | 2.0 | 4.0 | 0.00 | 0.00 | 0.00 | 36 | 1011.2 |
| 20260503212333 | 75 | 17 | 1.0 | 4.0 | 0.00 | 0.00 | 0.00 | 34 | 1011.3 |
| 20260503211331 | 75 | 139 | 1.0 | 6.0 | 0.00 | 0.00 | 0.00 | 32 | 1011.5 |
| 20260503205832 | 75 | 330 | 1.0 | 5.0 | 0.00 | 0.00 | 0.00 | 34 | 1011.7 |
| 20260503205331 | 74 | 282 | 2.0 | 7.0 | 0.00 | 0.00 | 0.00 | 36 | 1011.7 |
| 20260503204831 | 73 | 146 | 2.0 | 7.0 | 0.00 | 0.00 | 0.00 | 36 | 1011.8 |
| 20260503204331 | 74 | 186 | 1.0 | 5.0 | 0.00 | 0.00 | 0.00 | 37 | 1011.8 |
| 20260503203832 | 74 | 109 | 2.0 | 5.0 | 0.00 | 0.00 | 0.00 | 34 | 1011.8 |
| 20260503203337 | 73 | 137 | 1.0 | 4.0 | 0.00 | 0.00 | 0.00 | 37 | 1011.9 |
| 20260503202833 | 73 | 78 | 1.0 | 4.0 | 0.00 | 0.00 | 0.00 | 37 | 1012.1 |
| 20260503202329 | 73 | 84 | 1.0 | 4.0 | 0.00 | 0.00 | 0.00 | 38 | 1012.2 |
| 20260503201831 | 74 | 151 | 1.0 | 4.0 | 0.00 | 0.00 | 0.00 | 37 | 1012.2 |
| 20260503201330 | 73 | 116 | 1.0 | 3.0 | 0.00 | 0.00 | 0.00 | 40 | 1012.4 |
| 20260503200829 | 72 | 118 | 2.0 | 4.0 | 0.00 | 0.00 | 0.00 | 35 | 1012.4 |
| 20260503200330 | 72 | 79 | 2.0 | 4.0 | 0.00 | 0.00 | 0.00 | 37 | 1012.5 |
| 20260503195330 | 72 | 55 | 2.0 | 3.0 | 0.00 | 0.00 | 0.00 | 33 | 1012.6 |
| 20260503194831 | 72 | 127 | 2.0 | 4.0 | 0.00 | 0.00 | 0.00 | 35 | 1012.6 |
| 20260503194330 | 71 | 61 | 3.0 | 7.0 | 0.00 | 0.00 | 0.00 | 35 | 1012.6 |
| 20260503193829 | 70 | 59 | 3.0 | 7.0 | 0.00 | 0.00 | 0.00 | 35 | 1012.7 |
| 20260503192830 | 71 | 34 | 2.0 | 4.0 | 0.00 | 0.00 | 0.00 | 31 | 1012.8 |
| 20260503192329 | 72 | 16 | 2.0 | 3.0 | 0.00 | 0.00 | 0.00 | 31 | 1012.9 |
| 20260503191829 | 72 | 85 | 2.0 | 3.0 | 0.00 | 0.00 | 0.00 | 31 | 1012.9 |
| 20260503191329 | 72 | 75 | 2.0 | 3.0 | 0.00 | 0.00 | 0.00 | 32 | 1013.0 |
| 20260503190829 | 71 | 30 | 2.0 | 4.0 | 0.00 | 0.00 | 0.00 | 33 | 1013.1 |
| 20260503190329 | 71 | 70 | 1.0 | 4.0 | 0.00 | 0.00 | 0.00 | 34 | 1013.1 |
| 20260503185830 | 70 | 69 | 2.0 | 4.0 | 0.00 | 0.00 | 0.00 | 35 | 1013.1 |
| 20260503185329 | 70 | 74 | 2.0 | 4.0 | 0.00 | 0.00 | 0.00 | 35 | 1013.2 |
| 20260503184829 | 71 | 73 | 1.0 | 3.0 | 0.00 | 0.00 | 0.00 | 40 | 1013.2 |
| 20260503184330 | 71 | 305 | 1.0 | 2.0 | 0.00 | 0.00 | 0.00 | 40 | 1013.2 |
| 20260503183829 | 70 | 145 | 1.0 | 4.0 | 0.00 | 0.00 | 0.00 | 39 | 1013.2 |
| 20260503182830 | 71 | 131 | 1.0 | 3.0 | 0.00 | 0.00 | 0.00 | 38 | 1013.3 |
| 20260503182330 | 70 | 301 | 1.0 | 3.0 | 0.00 | 0.00 | 0.00 | 38 | 1013.4 |
| 20260503181829 | 69 | 47 | 1.0 | 4.0 | 0.00 | 0.00 | 0.00 | 39 | 1013.6 |
| 20260503181331 | 69 | 105 | 1.0 | 4.0 | 0.00 | 0.00 | 0.00 | 40 | 1013.7 |
| 20260503180832 | 69 | 60 | 1.0 | 5.0 | 0.00 | 0.00 | 0.00 | 42 | 1013.7 |
| 20260503174833 | 67 | 36 | 0.0 | 2.0 | 0.00 | 0.00 | 0.00 | 49 | 1013.9 |
| 20260503174333 | 67 | 247 | 0.0 | 2.0 | 0.00 | 0.00 | 0.00 | 46 | 1014.0 |
| 20260503173835 | 67 | 245 | 0.0 | 3.0 | 0.00 | 0.00 | 0.00 | 46 | 1014.0 |
| 20260503173331 | 66 | 336 | 0.0 | 3.0 | 0.00 | 0.00 | 0.00 | 49 | 1014.1 |
| 20260503172832 | 65 | 67 | 1.0 | 2.0 | 0.00 | 0.00 | 0.00 | 54 | 1014.0 |
| 20260503172336 | 63 | 88 | 1.0 | 3.0 | 0.00 | 0.00 | 0.00 | 53 | 1014.2 |
| 20260503171832 | 63 | 76 | 1.0 | 3.0 | 0.00 | 0.00 | 0.00 | 54 | 1014.2 |
| 20260503170831 | 64 | 31 | 0.0 | 2.0 | 0.00 | 0.00 | 0.00 | 54 | 1014.5 |
| 20260503170333 | 62 | 38 | 1.0 | 3.0 | 0.00 | 0.00 | 0.00 | 57 | 1014.4 |
| 20260503150830 | 49 | 67 | 0.0 | 1.0 | 0.00 | 0.00 | 0.00 | 80 | 1015.5 |
| 20260503150329 | 48 | 67 | 0.0 | 1.0 | 0.00 | 0.00 | 0.00 | 82 | 1015.5 |
| 20260503131318 | 38 | 269 | 0.0 | 0.0 | 0.00 | 0.00 | 0.00 | 93 | 1015.5 |
| 20260503130819 | 39 | 269 | 0.0 | 0.0 | 0.00 | 0.00 | 0.00 | 95 | 1015.5 |
| 20260503130319 | 38 | 269 | 0.0 | 0.0 | 0.00 | 0.00 | 0.00 | 94 | 1015.3 |
| 20260503110802 | 41 | 288 | 0.0 | 1.0 | 0.00 | 0.00 | 0.00 | 90 | 1015.2 |
| 20260503110301 | 41 | 288 | 0.0 | 2.0 | 0.00 | 0.00 | 0.00 | 90 | 1015.2 |
| 20260503081301 | 46 | 232 | 0.0 | 0.0 | 0.00 | 0.00 | 0.00 | 79 | 1015.0 |
| 20260503080804 | 46 | 232 | 0.0 | 0.0 | 0.00 | 0.00 | 0.00 | 79 | 1015.0 |
| 20260503080301 | 46 | 232 | 0.0 | 0.0 | 0.00 | 0.00 | 0.00 | 80 | 1014.9 |
| 20260503072806 | 50 | 109 | 0.0 | 0.0 | 0.00 | 0.00 | 0.00 | 80 | 1014.9 |
| 20260503072301 | 50 | 109 | 0.0 | 1.0 | 0.00 | 0.00 | 0.00 | 80 | 1014.9 |
| 20260503071802 | 50 | 109 | 0.0 | 1.0 | 0.00 | 0.00 | 0.00 | 81 | 1014.9 |
| 20260503070756 | 50 | 112 | 0.0 | 1.0 | 0.00 | 0.00 | 0.00 | 79 | 1014.8 |
| 20260503070250 | 50 | 98 | 0.0 | 1.0 | 0.00 | 0.00 | 0.00 | 79 | 1014.8 |
| 20260503060234 | 52 | 88 | 0.0 | 2.0 | 0.00 | 0.00 | 0.00 | 77 | 1014.4 |
| 20260503054730 | 51 | 221 | 0.0 | 1.0 | 0.00 | 0.00 | 0.00 | 69 | 1014.3 |
| 20260503054229 | 51 | 268 | 0.0 | 1.0 | 0.00 | 0.00 | 0.00 | 72 | 1014.2 |
| 20260503053729 | 53 | 123 | 0.0 | 1.0 | 0.00 | 0.00 | 0.00 | 71 | 1014.1 |